Zurück zum Katalog

THOR ABLESTAR DEB

AktivLEO
NORAD 659·DEBRIS·🇺🇸 United States

Gestartet Jun 29, 1961 von Cape Canaveral Space Force Station

Loading…

Nächste Überflüge (nächste 24 Stunden)

TLE

AktuellSource: Space-Track

Epoche: Sep 13, 2026, 12:40 UTC

1 00659U 61015HL  26256.52818899  .00000223  00000-0  72930-3 0  9995
2 00659  67.1597 287.3323 0590884 234.0854 285.3845 12.66894677  2020

Verfolge THOR ABLESTAR DEB in Echtzeit mit AllMySat

Download on the App Store